SCP
0 -0 -0 -0 -0 -0 -0 -0 -0 -0 -0 -0 -0 -0 -0 -0 -0 -0 -0 0 0 0 0 0 0 0 0 0 0 0 0 0 0 0 0 -0 -0 -0 -0 -0 0 0 0
-0 -0 -0 -0 -0 -0 -0 -0 -0 -0 -0 -0 -0 -0 -0 -0 -0 -0 -0 -0 -0 0 0 0 0 0 0 0 0 0 0 0 0 0 0 0 0 -0 -0 -0 0 0 0
-0 -0 -0 -0 -0 -0 -0 -0 -0 -0 -0 -0 -0 0 -0 -0 -0 -0 -0 -0 -0 -0 -0 -0 0 0 0 0 0 0 0 0 0 0 0 0 0 0 0 0 0 0 0
-0 -0 -0 -0 -0 -0 -0 -0 -0 -0 -0 -0 -0 -0 -0 -0 -0 -0 -0 0 -0 -0 -0 -0 -0 0 0 0 0 0 0 0 0 0 0 0 0 0 0 0 0 0 0
-0 -0 -0 -0 -0 -0 -0 -0 -0 -0 -0 -0 -0 -0 -0 -0 -0 -0 -0 0 0 0 0 0 -0 -0 0 0 0 0 0 0 -0 -0 0 0 0 0 0 0 0 0 0
-0 -0 -0 -0 -0 -0 -0 -0 -0 -0 -0 -0 -0 -0 -0 -0 -0 0 -0 0 0 0 0 0 0 0 0 0 0 0 0 0 -0 0 0 0 0 0 0 0 0 0 0
-0 -0 -0 -0 -0 -0 -0 -0 -0 -0 -0 -0 0 -0 -0 -0 0 0 0 -0 0 0 0 0 0 0 0 0 0 0 0 0 0 0 0 0 0 0 0 0 0 0 0
-0 -0 -0 -0 -0 -0 0 -0 -0 -0 -0 0 0 -0 -0 0 -0 0 0 0 0 0 0 0 0 0 0 0 0 0 0 0 0 0 0 0 0 0 0 0 0 0 0
0 0 0 -0 -0 -0 -0 0 0 0 0 0 0 0 0 -0 0 0 0 0 0 0 0 0 0 0 0 0 0 0 0 0 0 0 0 0 0 0 0 0 0 0 0
0 0 0 0 0 0 0 0 0 0 0 0 0 0 0 0 0 0 0 0 0 0 0 0 0 0 0 0 0 0 0 0 0 0 0 0 0 0 0 0 0 0 0
0 0 0 0 0 0 0 0 0 0 0 0 0 0 0 0 0 0 0 0 0 0 0 0 0 0 0 0 0 0 0 0 0 0 0 0 0 0 0 0 0 0 0
0 0 0 0 0 0 0 0 0 0 0 0 0 0 0 0 0 0 0 0 0 0 0 0 0 0 0 0 0 0 0 0 0 0 0 0 0 0 0 0 0 0 0
0 0 0 0 0 0 0 0 0 0 0 0 0 0 0 0 0 0 0 0 0 0 0 0 0 0 0 0 0 0 0 0 0 0 0 0 0 0 0 0 0 0 0
0 0 0 0 0 0 0 0 0 1 1 0 0 0 0 0 0 0 0 0 0 0 0 0 0 0 0 0 0 0 0 0 0 0 0 0 0 0 0 0 0 0 0
0 0 0 0 0 0 0 0 0 0 0 0 0 0 0 0 0 0 0 0 0 0 0 0 0 0 0 0 0 0 0 0 0 0 0 0 0 0 0 0 0 0 0
0 0 0 0 0 0 0 0 0 0 0 0 0 0 0 0 0 0 0 0 0 0 0 0 0 0 0 0 0 0 0 0 0 0 0 0 0 0 0 0 0 0 0
0 0 0 0 0 0 0 0 0 0 0 0 0 0 0 0 0 0 0 0 0 0 0 0 0 0 0 0 -0 -0 -0 0 0 0 0 0 0 0 0 0 0 0 0
0 0 0 0 0 0 0 0 0 0 0 0 0 0 0 0 0 0 0 0 0 0 0 0 0 0 0 0 0 0 0 0 0 0 0 0 0 0 0 0 0 0 0
0 0 0 0 0 0 0 0 0 0 0 0 0 0 0 0 0 0 0 0 0 0 0 0 0 0 0 0 -0 0 0 0 0 0 0 0 0 0 0 0 0 0 0
0 0 0 0 0 0 0 0 0 0 0 0 0 0 0 0 0 0 0 0 0 0 0 0 0 0 0 0 0 0 0 0 0 0 0 0 0 0 0 0 0 0 0
0 0 0 0 0 0 0 0 0 0 0 0 0 0 0 0 0 0 0 0 0 0 0 0 0 0 0 0 0 0 0 0 0 0 0 0 0 0 0 0 0 0 0
0 0 0 0 0 0 0 0 0 0 0 0 0 0 0 0 0 0 0 0 0 0 0 0 0 0 0 0 0 0 0 0 0 0 0 0 0 0 0 0 0 0 0
0 0 0 0 0 0 0 0 0 0 0 0 0 0 0 0 0 0 0 0 0 0 0 0 0 0 0 0 0 0 0 0 0 0 0 0 0 0 0 0 0 0 0
0 0 0 0 0 0 0 0 0 0 0 0 0 0 0 0 0 0 0 0 0 0 0 0 0 0 0 0 0 0 0 0 0 0 0 0 0 0 0 -0 0 0 0
0 0 0 0 0 0 0 0 0 0 0 0 0 0 0 0 0 0 0 0 0 0 0 0 0 0 0 0 0 0 0 0 0 0 0 0 0 -0 -0 0 -0 -0 0
0 0 0 0 0 0 0 0 0 0 0 0 0 0 0 0 0 0 0 0 0 0 0 0 0 0 0 0 0 0 0 0 0 0 0 0 0 -0 -0 -0 -0 -0 -0
Wind_Speed_500mb
18 25 26 24 23 24 22 20 21 19 17 15 15 15 14 12 12 12 12 15 17 17 18 19 18 17 17 18 15 14 13 15 15 19 18 20 21 14 14 16 16 17 17
20 25 27 22 21 22 21 20 17 17 15 15 13 14 13 9 12 16 10 14 16 15 15 15 16 15 13 12 14 15 13 14 15 15 17 16 17 21 18 12 14 17 15
26 28 29 26 21 19 20 19 17 16 13 13 12 11 8 7 9 15 15 15 14 15 13 13 14 13 11 10 9 10 12 12 16 23 29 12 9 12 14 16 18 19 16
23 25 29 28 26 20 19 19 17 13 11 9 10 10 10 10 6 12 13 16 15 15 14 13 15 12 9 7 5 5 9 10 13 23 16 14 14 8 7 6 6 9 12
22 23 25 27 25 21 18 20 16 13 9 8 10 6 5 9 10 14 17 18 17 14 13 12 11 11 9 5 2 2 5 8 14 23 11 8 14 11 8 3 3 6 7
18 24 23 25 24 21 17 19 18 14 10 9 9 3 3 11 8 13 17 18 17 13 9 10 11 11 8 4 3 3 4 9 21 10 11 9 8 13 11 11 3 4 5
14 22 24 23 23 20 17 17 17 15 13 10 9 3 1 7 10 13 19 19 14 11 11 13 11 8 6 4 5 5 6 11 14 12 10 1 7 8 8 7 5 4 4
13 19 16 24 21 22 19 18 17 14 15 14 11 9 6 5 9 15 19 19 16 10 8 9 8 8 6 6 6 6 7 10 12 8 4 5 4 7 10 9 8 7 6
10 13 14 17 25 25 24 23 19 18 15 14 13 13 10 7 9 12 16 17 16 8 8 8 7 5 5 5 4 4 5 7 8 4 8 9 2 5 9 10 10 8 8
13 11 21 28 30 23 21 23 19 19 16 16 17 15 14 12 11 14 13 13 11 10 9 10 9 7 5 2 2 1 1 4 3 2 10 9 11 13 14 13 12 10 8
14 17 20 23 27 33 28 23 27 23 22 20 21 18 17 16 9 6 15 14 10 9 10 11 10 8 5 3 4 4 4 4 5 7 13 11 13 14 14 15 14 13 11
17 20 22 24 26 29 34 26 22 24 26 24 21 17 17 19 10 16 11 15 15 19 16 16 14 12 10 7 6 7 8 8 10 10 12 13 13 14 14 15 16 17 16
20 23 26 27 27 28 29 34 26 27 24 22 18 17 19 20 17 12 17 16 15 18 24 21 25 20 17 13 12 12 13 13 14 15 16 16 16 16 17 16 15 15 16
16 21 27 31 33 34 31 28 26 29 27 22 22 19 17 15 10 9 12 17 16 18 20 18 18 27 28 25 20 17 17 19 20 21 23 21 20 19 18 18 18 18 18
14 18 21 23 26 32 32 27 35 36 36 32 27 21 18 14 15 13 19 17 17 16 19 25 23 26 35 36 35 31 27 25 25 26 26 24 25 24 23 22 20 20 19
18 20 22 23 22 26 38 39 36 33 29 26 24 25 23 21 22 21 21 21 15 17 21 19 17 20 18 24 35 40 40 37 34 33 31 30 29 28 27 27 26 24 23
23 23 22 21 24 31 38 42 37 29 23 20 18 19 24 25 26 30 29 29 22 21 21 13 12 15 17 22 29 39 49 47 35 34 34 34 34 33 32 32 30 29 27
14 13 11 11 17 29 39 39 35 26 20 15 11 7 9 16 15 13 18 19 21 10 10 9 12 16 22 25 30 33 40 40 38 34 30 32 32 32 34 33 34 34 33
6 6 11 15 24 31 37 38 31 27 20 16 14 9 6 1 7 7 3 2 3 2 5 12 20 24 26 31 33 29 25 24 23 26 26 28 28 29 30 33 32 35 36
15 19 24 28 34 35 36 35 32 28 25 24 21 17 15 16 18 13 11 7 1 6 11 14 15 18 18 24 23 18 15 17 16 17 14 18 18 20 22 25 27 28 31
21 25 30 38 45 42 41 40 38 35 31 28 23 19 15 13 8 6 2 2 4 6 12 14 13 18 23 23 19 18 18 20 13 21 8 14 14 16 21 25 29 33 33
28 35 42 48 53 49 47 42 35 31 27 23 22 20 17 13 13 15 17 18 19 22 22 23 25 25 29 34 36 21 13 13 16 19 19 16 17 15 30 32 37 37 36
35 39 42 43 41 36 32 31 30 31 33 31 30 29 29 25 23 21 21 22 23 23 26 29 30 31 32 33 35 27 14 12 48 11 33 20 40 48 44 54 47 36 46
39 38 36 34 35 35 36 39 41 41 42 40 35 30 26 23 21 21 20 20 22 26 27 30 33 35 36 35 30 30 21 22 16 29 30 55 36 62 70 67 54 60 58
40 40 41 41 40 39 38 38 39 40 38 35 31 26 22 19 18 18 18 20 23 25 28 30 32 35 37 38 39 39 37 37 15 35 52 67 79 72 80 74 84 74 65
47 46 45 44 42 40 38 35 33 33 32 29 25 18 15 14 15 16 19 22 24 25 28 30 32 33 35 36 37 37 38 38 41 42 57 69 82 88 87 90 86 80 83
Wind_Direction_500mb
154 192 173 168 164 163 161 154 146 139 132 122 113 106 95 83 53 23 37 43 40 36 38 40 43 47 60 73 77 97 96 95 75 61 60 55 65 76 73 71 75 71 69
176 188 176 173 172 165 166 161 155 150 144 126 123 122 110 65 22 25 43 40 35 33 31 34 35 39 47 60 70 94 90 86 73 55 50 36 63 69 67 69 57 70 71
161 181 176 168 174 174 173 168 163 151 149 136 130 132 105 53 24 33 58 40 32 33 29 27 29 33 35 55 73 94 89 78 75 71 68 13 30 88 79 72 63 62 65
165 175 179 173 172 180 181 175 170 161 156 149 147 126 105 82 359 8 24 21 17 17 18 23 23 21 22 42 64 88 94 78 69 74 61 45 27 81 78 75 54 50 53
163 167 193 185 183 184 180 181 183 175 173 167 146 129 78 11 2 4 5 2 3 5 11 19 16 18 20 19 54 92 89 87 76 68 69 67 47 61 50 12 341 339 334
157 166 204 197 186 193 188 189 190 192 199 193 189 169 42 3 17 9 358 356 5 8 22 18 17 26 32 33 58 101 103 85 81 83 58 5 30 37 40 41 35 354 338
150 171 205 194 190 196 199 200 206 213 211 209 202 210 246 8 14 1 352 356 4 14 10 15 14 17 35 66 100 114 116 116 110 114 110 335 24 22 23 27 31 2 323
152 174 195 199 193 198 208 212 212 220 223 216 217 229 247 322 344 353 357 359 359 11 13 22 23 21 22 45 75 105 126 128 85 100 114 278 13 2 346 350 346 325 313
157 167 183 207 207 204 210 214 223 231 233 238 236 235 240 275 313 335 344 346 357 357 3 11 19 42 59 53 50 87 132 140 105 142 87 266 281 322 320 330 332 325 318
168 169 190 198 204 205 225 226 220 232 230 238 240 253 256 268 289 319 326 336 337 355 355 1 6 15 25 41 63 87 166 204 235 230 277 300 296 298 313 319 321 322 310
217 218 214 211 209 201 192 235 227 230 234 235 245 251 263 250 246 316 331 336 337 337 360 6 5 4 1 339 318 297 277 273 270 276 281 293 294 300 308 314 318 315 314
227 227 227 223 220 217 206 199 228 233 229 231 238 240 244 215 274 292 331 345 349 349 346 348 349 355 357 334 304 290 291 292 286 282 281 281 282 287 296 307 314 315 317
240 242 239 235 233 231 222 210 199 226 226 226 227 233 220 233 246 259 310 314 326 339 347 345 344 338 340 330 315 299 293 289 286 286 286 286 287 290 293 296 301 305 309
241 245 244 241 238 236 227 212 201 219 223 223 225 222 227 234 222 268 286 290 297 306 317 324 332 339 344 334 319 308 297 289 286 284 284 286 286 285 287 290 291 293 297
251 252 253 253 249 234 221 201 200 209 215 221 220 216 216 228 238 254 258 254 269 292 306 313 316 329 336 340 338 322 308 298 290 284 283 283 284 283 282 281 281 283 286
277 270 264 256 248 212 203 202 203 206 211 221 232 238 243 248 253 260 266 274 235 279 286 282 288 300 315 335 340 333 326 311 303 296 290 284 279 279 279 279 278 276 275
273 274 269 251 237 210 193 199 199 201 206 216 224 246 242 243 248 253 259 254 261 265 263 232 279 306 318 325 328 327 323 318 310 298 295 292 289 285 280 277 277 276 275
260 254 247 228 201 183 183 187 193 191 197 193 187 216 238 247 261 256 278 275 273 270 272 294 311 317 316 316 319 316 314 310 310 303 286 283 288 288 287 283 281 276 272
185 151 133 139 154 171 180 189 184 173 169 175 168 192 169 293 252 241 248 211 143 214 318 309 306 302 308 315 320 328 327 311 300 297 306 301 299 297 292 288 283 282 281
144 137 142 146 154 168 176 178 167 158 152 145 140 142 135 126 117 103 115 133 171 301 304 296 315 328 347 353 356 348 345 359 37 18 356 339 333 327 321 314 306 298 292
150 147 150 154 154 159 158 159 153 153 149 145 140 140 137 139 142 142 120 71 48 37 50 40 32 15 5 1 355 17 15 6 53 18 359 345 336 336 337 329 322 315 308
156 156 153 153 150 150 147 150 155 152 149 140 133 132 122 113 103 96 88 77 66 56 49 40 35 23 11 8 13 19 355 335 321 331 336 4 349 332 334 331 329 326 324
158 154 154 152 154 153 155 159 155 147 136 127 121 117 111 106 99 87 75 62 50 41 30 24 19 13 14 11 14 26 2 336 331 263 318 310 317 310 317 321 318 318 322
170 168 167 170 166 158 151 147 143 141 136 130 125 111 100 88 78 67 55 44 33 24 16 13 10 7 4 5 3 8 2 347 334 316 290 317 308 310 316 319 315 315 317
158 160 161 159 155 150 148 144 141 137 132 125 115 106 92 76 63 50 37 29 19 13 9 5 0 0 358 357 356 351 344 341 338 305 311 310 313 316 318 314 316 318 315
158 157 156 156 153 150 148 143 141 139 133 128 118 110 97 71 44 30 17 9 6 1 357 356 354 352 351 349 346 342 338 334 322 314 307 309 311 313 314 314 317 316 315
Wind_Speed_850mb
18 25 26 24 23 24 22 20 21 19 17 15 15 15 14 12 12 12 12 15 17 17 18 19 18 17 17 18 15 14 13 15 15 19 18 20 21 14 14 16 16 17 17
20 25 27 22 21 22 21 20 17 17 15 15 13 14 13 9 12 16 10 14 16 15 15 15 16 15 13 12 14 15 13 14 15 15 17 16 17 21 18 12 14 17 15
26 28 29 26 21 19 20 19 17 16 13 13 12 11 8 7 9 15 15 15 14 15 13 13 14 13 11 10 9 10 12 12 16 23 29 12 9 12 14 16 18 19 16
23 25 29 28 26 20 19 19 17 13 11 9 10 10 10 10 6 12 13 16 15 15 14 13 15 12 9 7 5 5 9 10 13 23 16 14 14 8 7 6 6 9 12
22 23 25 27 25 21 18 20 16 13 9 8 10 6 5 9 10 14 17 18 17 14 13 12 11 11 9 5 2 2 5 8 14 23 11 8 14 11 8 3 3 6 7
18 24 23 25 24 21 17 19 18 14 10 9 9 3 3 11 8 13 17 18 17 13 9 10 11 11 8 4 3 3 4 9 21 10 11 9 8 13 11 11 3 4 5
14 22 24 23 23 20 17 17 17 15 13 10 9 3 1 7 10 13 19 19 14 11 11 13 11 8 6 4 5 5 6 11 14 12 10 1 7 8 8 7 5 4 4
13 19 16 24 21 22 19 18 17 14 15 14 11 9 6 5 9 15 19 19 16 10 8 9 8 8 6 6 6 6 7 10 12 8 4 5 4 7 10 9 8 7 6
10 13 14 17 25 25 24 23 19 18 15 14 13 13 10 7 9 12 16 17 16 8 8 8 7 5 5 5 4 4 5 7 8 4 8 9 2 5 9 10 10 8 8
13 11 21 28 30 23 21 23 19 19 16 16 17 15 14 12 11 14 13 13 11 10 9 10 9 7 5 2 2 1 1 4 3 2 10 9 11 13 14 13 12 10 8
14 17 20 23 27 33 28 23 27 23 22 20 21 18 17 16 9 6 15 14 10 9 10 11 10 8 5 3 4 4 4 4 5 7 13 11 13 14 14 15 14 13 11
17 20 22 24 26 29 34 26 22 24 26 24 21 17 17 19 10 16 11 15 15 19 16 16 14 12 10 7 6 7 8 8 10 10 12 13 13 14 14 15 16 17 16
20 23 26 27 27 28 29 34 26 27 24 22 18 17 19 20 17 12 17 16 15 18 24 21 25 20 17 13 12 12 13 13 14 15 16 16 16 16 17 16 15 15 16
16 21 27 31 33 34 31 28 26 29 27 22 22 19 17 15 10 9 12 17 16 18 20 18 18 27 28 25 20 17 17 19 20 21 23 21 20 19 18 18 18 18 18
14 18 21 23 26 32 32 27 35 36 36 32 27 21 18 14 15 13 19 17 17 16 19 25 23 26 35 36 35 31 27 25 25 26 26 24 25 24 23 22 20 20 19
18 20 22 23 22 26 38 39 36 33 29 26 24 25 23 21 22 21 21 21 15 17 21 19 17 20 18 24 35 40 40 37 34 33 31 30 29 28 27 27 26 24 23
23 23 22 21 24 31 38 42 37 29 23 20 18 19 24 25 26 30 29 29 22 21 21 13 12 15 17 22 29 39 49 47 35 34 34 34 34 33 32 32 30 29 27
14 13 11 11 17 29 39 39 35 26 20 15 11 7 9 16 15 13 18 19 21 10 10 9 12 16 22 25 30 33 40 40 38 34 30 32 32 32 34 33 34 34 33
6 6 11 15 24 31 37 38 31 27 20 16 14 9 6 1 7 7 3 2 3 2 5 12 20 24 26 31 33 29 25 24 23 26 26 28 28 29 30 33 32 35 36
15 19 24 28 34 35 36 35 32 28 25 24 21 17 15 16 18 13 11 7 1 6 11 14 15 18 18 24 23 18 15 17 16 17 14 18 18 20 22 25 27 28 31
21 25 30 38 45 42 41 40 38 35 31 28 23 19 15 13 8 6 2 2 4 6 12 14 13 18 23 23 19 18 18 20 13 21 8 14 14 16 21 25 29 33 33
28 35 42 48 53 49 47 42 35 31 27 23 22 20 17 13 13 15 17 18 19 22 22 23 25 25 29 34 36 21 13 13 16 19 19 16 17 15 30 32 37 37 36
35 39 42 43 41 36 32 31 30 31 33 31 30 29 29 25 23 21 21 22 23 23 26 29 30 31 32 33 35 27 14 12 48 11 33 20 40 48 44 54 47 36 46
39 38 36 34 35 35 36 39 41 41 42 40 35 30 26 23 21 21 20 20 22 26 27 30 33 35 36 35 30 30 21 22 16 29 30 55 36 62 70 67 54 60 58
40 40 41 41 40 39 38 38 39 40 38 35 31 26 22 19 18 18 18 20 23 25 28 30 32 35 37 38 39 39 37 37 15 35 52 67 79 72 80 74 84 74 65
47 46 45 44 42 40 38 35 33 33 32 29 25 18 15 14 15 16 19 22 24 25 28 30 32 33 35 36 37 37 38 38 41 42 57 69 82 88 87 90 86 80 83
Wind_Direction_850mb
154 192 173 168 164 163 161 154 146 139 132 122 113 106 95 83 53 23 37 43 40 36 38 40 43 47 60 73 77 97 96 95 75 61 60 55 65 76 73 71 75 71 69
176 188 176 173 172 165 166 161 155 150 144 126 123 122 110 65 22 25 43 40 35 33 31 34 35 39 47 60 70 94 90 86 73 55 50 36 63 69 67 69 57 70 71
161 181 176 168 174 174 173 168 163 151 149 136 130 132 105 53 24 33 58 40 32 33 29 27 29 33 35 55 73 94 89 78 75 71 68 13 30 88 79 72 63 62 65
165 175 179 173 172 180 181 175 170 161 156 149 147 126 105 82 359 8 24 21 17 17 18 23 23 21 22 42 64 88 94 78 69 74 61 45 27 81 78 75 54 50 53
163 167 193 185 183 184 180 181 183 175 173 167 146 129 78 11 2 4 5 2 3 5 11 19 16 18 20 19 54 92 89 87 76 68 69 67 47 61 50 12 341 339 334
157 166 204 197 186 193 188 189 190 192 199 193 189 169 42 3 17 9 358 356 5 8 22 18 17 26 32 33 58 101 103 85 81 83 58 5 30 37 40 41 35 354 338
150 171 205 194 190 196 199 200 206 213 211 209 202 210 246 8 14 1 352 356 4 14 10 15 14 17 35 66 100 114 116 116 110 114 110 335 24 22 23 27 31 2 323
152 174 195 199 193 198 208 212 212 220 223 216 217 229 247 322 344 353 357 359 359 11 13 22 23 21 22 45 75 105 126 128 85 100 114 278 13 2 346 350 346 325 313
157 167 183 207 207 204 210 214 223 231 233 238 236 235 240 275 313 335 344 346 357 357 3 11 19 42 59 53 50 87 132 140 105 142 87 266 281 322 320 330 332 325 318
168 169 190 198 204 205 225 226 220 232 230 238 240 253 256 268 289 319 326 336 337 355 355 1 6 15 25 41 63 87 166 204 235 230 277 300 296 298 313 319 321 322 310
217 218 214 211 209 201 192 235 227 230 234 235 245 251 263 250 246 316 331 336 337 337 360 6 5 4 1 339 318 297 277 273 270 276 281 293 294 300 308 314 318 315 314
227 227 227 223 220 217 206 199 228 233 229 231 238 240 244 215 274 292 331 345 349 349 346 348 349 355 357 334 304 290 291 292 286 282 281 281 282 287 296 307 314 315 317
240 242 239 235 233 231 222 210 199 226 226 226 227 233 220 233 246 259 310 314 326 339 347 345 344 338 340 330 315 299 293 289 286 286 286 286 287 290 293 296 301 305 309
241 245 244 241 238 236 227 212 201 219 223 223 225 222 227 234 222 268 286 290 297 306 317 324 332 339 344 334 319 308 297 289 286 284 284 286 286 285 287 290 291 293 297
251 252 253 253 249 234 221 201 200 209 215 221 220 216 216 228 238 254 258 254 269 292 306 313 316 329 336 340 338 322 308 298 290 284 283 283 284 283 282 281 281 283 286
277 270 264 256 248 212 203 202 203 206 211 221 232 238 243 248 253 260 266 274 235 279 286 282 288 300 315 335 340 333 326 311 303 296 290 284 279 279 279 279 278 276 275
273 274 269 251 237 210 193 199 199 201 206 216 224 246 242 243 248 253 259 254 261 265 263 232 279 306 318 325 328 327 323 318 310 298 295 292 289 285 280 277 277 276 275
260 254 247 228 201 183 183 187 193 191 197 193 187 216 238 247 261 256 278 275 273 270 272 294 311 317 316 316 319 316 314 310 310 303 286 283 288 288 287 283 281 276 272
185 151 133 139 154 171 180 189 184 173 169 175 168 192 169 293 252 241 248 211 143 214 318 309 306 302 308 315 320 328 327 311 300 297 306 301 299 297 292 288 283 282 281
144 137 142 146 154 168 176 178 167 158 152 145 140 142 135 126 117 103 115 133 171 301 304 296 315 328 347 353 356 348 345 359 37 18 356 339 333 327 321 314 306 298 292
150 147 150 154 154 159 158 159 153 153 149 145 140 140 137 139 142 142 120 71 48 37 50 40 32 15 5 1 355 17 15 6 53 18 359 345 336 336 337 329 322 315 308
156 156 153 153 150 150 147 150 155 152 149 140 133 132 122 113 103 96 88 77 66 56 49 40 35 23 11 8 13 19 355 335 321 331 336 4 349 332 334 331 329 326 324
158 154 154 152 154 153 155 159 155 147 136 127 121 117 111 106 99 87 75 62 50 41 30 24 19 13 14 11 14 26 2 336 331 263 318 310 317 310 317 321 318 318 322
170 168 167 170 166 158 151 147 143 141 136 130 125 111 100 88 78 67 55 44 33 24 16 13 10 7 4 5 3 8 2 347 334 316 290 317 308 310 316 319 315 315 317
158 160 161 159 155 150 148 144 141 137 132 125 115 106 92 76 63 50 37 29 19 13 9 5 0 0 358 357 356 351 344 341 338 305 311 310 313 316 318 314 316 318 315
158 157 156 156 153 150 148 143 141 139 133 128 118 110 97 71 44 30 17 9 6 1 357 356 354 352 351 349 346 342 338 334 322 314 307 309 311 313 314 314 317 316 315